This demonstration page uses our WeatherBlox Daily Observations layout. Learn more.

Left ArrowRight Arrow

39.12711, -84.51439

Hourly Observations for October 30, 2018

Temp ( °F °C ) Dew Point ( °F °C ) Humidity (%) Winds ( mph kmh ) Pressure ( in mb ) Visibility ( mi km ) Precip ( " mm )
12:53 am 00:53 Clear 37 2.8 37 2.8 100 100 N N/A 30.13 1020 10 16 N/A
1:53 am 01:53 Clear 37 2.8 37 2.8 100 100 N N/A 30.14 1021 10 16 N/A
2:53 am 02:53 Clear 36 2.2 36 2.2 100 100 N N/A 30.15 1021 10 16 N/A
3:53 am 03:53 Clear 36 2.2 36 2.2 100 100 N N/A 30.16 1021 10 16 N/A
4:53 am 04:53 Clear 36 2.2 36 2.2 100 100 N N/A 30.15 1021 10 16 N/A
5:26 am 05:26 Partly Cloudy 35 1.7 35 1.7 100 100 N N/A 30.15 1021 10 16 N/A
5:35 am 05:35 Mostly Cloudy 36 2.2 35 1.7 97 97 N N/A 30.15 1021 8 13 N/A
5:43 am 05:43 Mostly Cloudy with Mist and Fog 36 2.2 36 2.2 100 100 N N/A 30.15 1021 1 1 N/A
5:53 am 05:53 Mostly Cloudy with Fog 36 2.2 36 2.2 100 100 N N/A 30.16 1021 0 0 N/A
6:53 am 06:53 Cloudy with Fog 37 2.8 37 2.8 100 100 N N/A 30.17 1022 1 1 N/A
7:00 am 07:00 Mostly Cloudy with Fog 37 2.8 37 2.8 100 100 N N/A 30.18 1022 0 0 N/A
7:08 am 07:08 Cloudy with Fog 37 2.8 37 2.8 100 100 N N/A 30.18 1022 1 1 N/A
7:53 am 07:53 Mostly Cloudy with Fog 36 2.2 36 2.2 100 100 N N/A 30.17 1022 1 1 N/A
8:11 am 08:11 Mostly Cloudy with Patchy Fog 35 1.7 35 1.7 100 100 N N/A 30.18 1022 2 3 N/A
8:18 am 08:18 Mostly Cloudy with Patchy Fog 35 1.7 35 1.7 100 100 N N/A 30.18 1022 1 2 N/A
8:21 am 08:21 Mostly Cloudy with Patchy Fog 35 1.7 35 1.7 100 100 N N/A 30.18 1022 1 2 N/A
8:53 am 08:53 Mostly Cloudy with Patchy Fog 38 3.3 38 3.3 100 100 N N/A 30.18 1022 1 2 N/A
9:46 am 09:46 Mostly Cloudy with Patchy Fog 41 5 41 5 100 100 N N/A 30.18 1022 2 3 N/A
9:53 am 09:53 Partly Cloudy with Mist and Fog 42 5.6 42 5.6 100 100 N N/A 30.18 1022 5 8 N/A
10:00 am 10:00 Cloudy with Mist and Fog 42 5.6 42 5.6 100 100 N N/A 30.18 1022 10 16 N/A
10:53 am 10:53 Mostly Cloudy 47 8.3 44 6.7 90 90 N N/A 30.18 1022 10 16 N/A
11:53 am 11:53 Cloudy 54 12.2 46 7.8 75 75 WSW 6 9 30.15 1021 10 16 N/A
12:53 pm 12:53 Mostly Cloudy 60 15.6 46 7.8 60 60 S 8 13 30.11 1020 10 16 N/A
1:53 pm 13:53 Partly Cloudy 64 17.8 45 7.2 50 50 SSW 12 19 30.08 1019 10 16 N/A
2:53 pm 14:53 Sunny 67 19.4 45 7.2 45 45 S 10 17 30.05 1018 10 16 N/A
3:53 pm 15:53 Sunny 68 20 43 6.1 40 40 SSE 13 20 30.03 1017 10 16 N/A
4:53 pm 16:53 Sunny 67 19.4 44 6.7 44 44 S 14 22 30.03 1017 10 16 N/A
5:53 pm 17:53 Sunny 65 18.3 45 7.2 49 49 SSE 9 15 30.01 1016 10 16 N/A
6:53 pm 18:53 Clear 60 15.6 44 6.7 56 56 N N/A 30.02 1017 10 16 N/A
7:53 pm 19:53 Clear 54 12.2 45 7.2 72 72 N N/A 30.02 1017 10 16 N/A
8:53 pm 20:53 Clear 51 10.6 46 7.8 83 83 N N/A 30.01 1016 10 16 N/A
9:53 pm 21:53 Mostly Cloudy 56 13.3 44 6.7 65 65 SW 5 7 30.00 1016 10 16 N/A
10:53 pm 22:53 Cloudy 57 13.9 45 7.2 64 64 N N/A 29.99 1016 10 16 N/A
11:53 pm 23:53 Cloudy 57 13.9 45 7.2 64 64 SSW 3 6 29.98 1015 10 16 N/A

Powered by AerisWeather